Tracking 20628 objects as of 7-Apr-2020
HD Live streaming from Space Station
objects crossing your sky now

SL-6 R/B(2)

Track SL-6 R/B(2) now!


NORAD ID: 22241
Int'l Code: 1992-081D
Perigee: 5,285.2 km
Apogee: 34,588.6 km
Inclination: 68.9 °
Period: 707.8 minutes
Semi major axis: 26307 km
RCS: 5.1164 m2 (large)
Launch date: November 25, 1992
Source: Commonwealth of Independent States (former USSR) (CIS)
Launch site: PLESETSK MISSILE AND SPACE COMPLEX (PKMTR)

Note: This is a ROCKET BODY
aabbcc
Your satellite tracking list
Your tracking list is empty




NASA's NSSDC Master Catalog

Two Line Element Set (TLE):
1 22241U 92081D   20098.18560771  .00000032  00000-0  00000+0 0  9999
2 22241  68.9303 157.3987 5569299  82.5389 334.4302  2.03457416203334
Source of the keplerian elements: AFSPC